Location: Tucson
(32.2217°N, 110.9265°W)
Time: 09:39:13
(UTC-07:00)

Envisat - Pass Details

Date: 14 October 2022
Orbit: 763 x 765 km, 98.2° (Epoch: 29 November)

Event Time Altitude Azimuth Distance (km) Brightness Sun altitude
Rises 05:11:25 0° 2° (N) 3,233 6.3 -16.7°
Reaches altitude 10° 05:13:51 10° 355° (N) 2,303 5.4 -16.2°
Maximum altitude 05:18:32 39° 288° (WNW) 1,127 3.4 -15.2°
Drops below altitude 10° 05:23:12 10° 220° (SW) 2,290 5.1 -14.2°
Sets 05:25:37 0° 212° (SSW) 3,212 5.9 -13.7°
